{"data":{"norad_id":48781,"epoch":"2026-05-25T00:35:00.277728Z","epoch_age_seconds":72874,"freshness":"FRESH","line1":"1 48781U 21045Q   26145.02430877  .00000100  00000+0  23288-3 0  9995","line2":"2 48781  87.9006 263.7971 0001828 101.9117 258.2218 13.15549424241603","mean_motion":13.15549424,"eccentricity":0.0001828,"inclination_deg":87.9006,"raan_deg":263.7971,"arg_perigee_deg":101.9117,"mean_anomaly_deg":258.2218,"bstar":0.00023288,"rev_number":24160,"period_min":109.45996963167,"perigee_km":1200.3818037372,"apogee_km":1203.1530167896,"semimajor_km":7579.9044102634,"source":"CELESTRAK","updated_at":"2026-05-25T13:38:22.444341Z"}}